Find Starlink 30103

NORAD ID: 56290 Int'l Des: 2023-056 Owner: SPXS Country: US Constellation: starlink operational
LEOCIRCULAR

Live Position

Loading 3D Globe...

About Starlink 30103

Description loading...

Upcoming Passes

Passes for default location (London). Set your location on the main map for personalized predictions.

Altitude History

Loading altitude history...

Two-Line Element Set

1 56290U 23056E 26124.81718552 .00000171 00000-0 15760-4 0 9992
2 56290 43.0027 251.9681 0001885 272.0658 87.9978 15.27578708168625
Epoch: May 4, 2026 • Age: 28 hours

Current Status

Altitude 494.1 km
Velocity 7.62 km/s
Sub-Earth Point -40.47°S, 83.73°W
Launch Date Apr 19, 2023
Age 3 years
Type internet

Technical Details

Classification Payload
Mass 730.00 kg
Dry Mass 700.00 kg
Total Mass 730.00 kg
Length 0.30 m
Diameter 4.10 m
Span 29.00 m
Shape Box + pan
Manufacturer SPXS
Bus Type Starlink V2M
Phase Status In Orbit
Owner/State SPXS/US

Most Searched